Regional Weather Roundup
Issued by NWS

Home | Current Version | Previous Version | Graphics & Text | Print | Product List | Glossary On
Versions: 1 2 3 4 5 6 7 8 9 10 11 12 13 14 15 16 17 18 19 20 21 22 23 24 25 26 27 28 29 30 31 32 33 34 35 36 37 38 39 40 41 42 43 44 45 46 47 48 49 50
000
ASUS45 KABQ 290710
RWRNM
WEATHER ROUNDUP FOR NEW MEXICO
NATIONAL WEATHER SERVICE ALBUQUERQUE NM
100 AM MDT SUN MAR 29 2015

NOTE: "FAIR" MEANS FEW OR NO CLOUDS BELOW 12,000 FEET AGL WITH NO
       SIGNIFICANT WEATHER OR OBSTRUCTIONS TO VISION.

      THIS PRODUCT IS RELEASED AS TWO VERSIONS.  ONE VERSION NEAR
      THE TOP OF THE HOUR CONTAINING PRELIMINARY DATA FROM ALBUQUERQUE
      AND OTHER STATIONS.  A FINAL VERSION WITH ADDITIONAL DATA IS
      ISSUED ABOUT 10 MINUTES AFTER THE HOUR.

NMZ501-503-504-510>518-290800-
NORTHWEST PLATEAU/NORTHCENTRAL MOUNTAINS

CITY           SKY/WX    TMP DP  RH WIND       PRES   REMARKS
FARMINGTON     CLEAR     42  17  36 NE6       30.16R
LOS ALAMOS     CLEAR     58  12  16 S3        30.24S
SANTA FE       CLEAR     52  13  21 CALM      30.18S
TAOS           CLEAR     41  16  36 N3        30.22R
ANGEL FIRE     FAIR      37  22  56 SW7       30.27S WCI  31

$$
NMZ402-403-502-505>509-290800-
WESTCENTRAL MOUNTAINS/SOUTHWEST MOUNTAINS

CITY           SKY/WX    TMP DP  RH WIND       PRES   REMARKS
GALLUP         CLEAR     38  10  31 E5        30.27R WCI  34
GRANTS         CLEAR     37  10  33 NW7       30.26S WCI  31
SILVER CITY    CLEAR     54  10  17 N13       30.24S

$$
NMZ407-409-411-412-290800-
SOUTHERN DESERTS

CITY           SKY/WX    TMP DP  RH WIND       PRES   REMARKS
LORDSBURG      FAIR      54  12  19 W10       30.17S
DEMING         CLEAR     60   6  11 NW10      30.14S
LAS CRUCES     CLEAR     54   4  13 NE7       30.15R
HOLLOMAN AFB   PTCLDY    60  10  14 S8        30.07S
ALAMOGORDO     PTCLDY    61  10  13 S12       30.09S
T OR C         CLEAR     66   2   8 NW10      30.14R

$$
NMZ519>523-290800-
CENTRAL VALLEYS/CENTRAL HIGHLANDS

CITY           SKY/WX    TMP DP  RH WIND       PRES   REMARKS
ALBUQUERQUE    CLEAR     55  15  20 SE5       30.15S
DOUBLE EAGLE   CLEAR     48  17  29 NW9       30.19R
MORIARTY ARPT  FAIR      37  15  41 NE3       30.19S
CLINES CORNERS PTCLDY    47  15  27 W12       30.20S
BELEN          FAIR      53   7  16 W9        30.17R
SOCORRO        FAIR      70   9   9 W20G26    30.14R

$$
NMZ524>526-539-540-290800-
SOUTHCENTRAL MOUNTAINS

CITY           SKY/WX    TMP DP  RH WIND       PRES   REMARKS
RUIDOSO        CLEAR     54  12  19 W8        30.25F

$$
NMZ527>531-290800-
NORTHEAST HIGHLANDS/NORTHEAST PLAINS

CITY           SKY/WX    TMP DP  RH WIND       PRES   REMARKS
LAS VEGAS      CLEAR     53  12  19 NW8       30.17S
RATON          PTCLDY    57  17  21 CALM      30.09R
CLAYTON        CLEAR     59  21  23 W10       30.01F

$$
NMZ532>537-290800-
EASTCENTRAL PLAINS

CITY           SKY/WX    TMP DP  RH WIND       PRES   REMARKS
TUCUMCARI      CLEAR     55  25  31 SW5       29.99R
CANNON AFB     CLEAR     55  27  34 SW6       30.04S
CLOVIS AIRPORT CLEAR     54  28  37 S8        30.04S

$$
NMZ028-029-538-290800-
SOUTHEAST PLAINS

CITY           SKY/WX    TMP DP  RH WIND       PRES   REMARKS
ROSWELL        CLEAR     66  21  18 W13       30.03S
ARTESIA        CLEAR     63  21  20 W16       30.04S
CARLSBAD       CLEAR     59  28  30 CALM      30.01S
HOBBS          CLEAR     57  23  26 S8        30.05R


$$


USA.gov is the U.S. government's official web portal to all federal, state and local government web resources and services.